Huntingburg, IN

8:44 AM EST on February 22, 2018 (GMT -0500)
Huntingburg

Weather History for KHNB - May, 2014

Change the Weather History Date:

Friday, May 9, 2014

  Actual Average Record
Temperature  
Mean Temperature 70 °F -  
Max Temperature 78 °F 72 °F 84 °F (2004)
Min Temperature 62 °F 52 °F 48 °F (2001)
Cooling Degree Days 5    
Growing Degree Days 20 (Base 50)    
Moisture  
Dew Point 58 °F    
Average Humidity 67    
Maximum Humidity 83    
Minimum Humidity 50    
Precipitation  
Precipitation 0.24 in - - ()
Sea Level Pressure  
Sea Level Pressure 29.92 in    
Wind  
Wind Speed 12 mph (SW)    
Max Wind Speed 21 mph    
Max Gust Speed 28 mph    
Visibility 10 miles    
Events Thunderstorm    
Averages and records for this station are not official NWS values.
T = Trace of Precipitation, MM = Missing Value Source: NWS Daily Summary

Daily Weather History Graph

Daily Weather History Graph

Search for Another Location

Airport or City:

Trip Planner

Search our weather history database for the weather conditions in past years. The results will help you decide how hot, cold, wet, or windy it might be!

Date:

Astronomy

May. 09, 2014 Rise Set
Actual Time 6:42 AM EDT 8:46 PM EDT
Civil Twilight 6:13 AM EDT 9:15 PM EDT
Nautical Twilight 5:37 AM EDT 9:51 PM EDT
Astronomical Twilight 4:59 AM EDT 10:30 PM EDT
Moon 3:47 PM EDT (5/9) 3:39 AM EDT (5/9)
Length of Visible Light 15h 02m
Length of Day
14h 04m
Waxing Gibbous, 73% of the Moon is Illuminated
May 9
Waxing Gibbous
May 14
Full
May 21
Last Quarter
May 28
New
Jun 5
First Quarter

Hourly Weather History & Observations

Time (EDT) Temp. Dew Point Humidity Pressure Visibility Wind Dir Wind Speed Gust Speed Precip Events Conditions
12:15 AM 73.4 °F 53.6 °F 50% 29.97 in 10.0 mi SSW 12.7 mph - N/A   Clear
12:35 AM 73.4 °F 53.6 °F 50% 29.97 in 10.0 mi SSW 12.7 mph - N/A   Clear
12:55 AM 73.4 °F 53.6 °F 50% 29.97 in 10.0 mi SSW 12.7 mph - N/A   Clear
1:15 AM 73.4 °F 53.6 °F 50% 29.97 in 10.0 mi SSW 11.5 mph - N/A   Clear
1:35 AM 73.4 °F 53.6 °F 50% 29.97 in 10.0 mi SSW 10.4 mph - N/A   Clear
1:55 AM 71.6 °F 53.6 °F 53% 29.96 in 10.0 mi SSW 11.5 mph - N/A   Clear
2:15 AM 71.6 °F 53.6 °F 53% 29.96 in 10.0 mi SSW 10.4 mph - N/A   Clear
2:35 AM 71.6 °F 53.6 °F 53% 29.95 in 10.0 mi SSW 8.1 mph - N/A   Clear
2:55 AM 71.6 °F 53.6 °F 53% 29.94 in 10.0 mi SSW 8.1 mph - N/A   Clear
3:15 AM 71.6 °F 53.6 °F 53% 29.94 in 10.0 mi SSW 8.1 mph - N/A   Clear
3:35 AM 71.6 °F 53.6 °F 53% 29.93 in 10.0 mi SSW 6.9 mph - N/A   Clear
3:55 AM 69.8 °F 53.6 °F 56% 29.93 in 10.0 mi South 5.8 mph - N/A   Clear
4:15 AM 69.8 °F 53.6 °F 56% 29.93 in 10.0 mi South 6.9 mph - N/A   Clear
4:35 AM 69.8 °F 53.6 °F 56% 29.92 in 10.0 mi South 5.8 mph - N/A   Clear
5:15 AM 69.8 °F 53.6 °F 56% 29.91 in 10.0 mi South 6.9 mph - N/A   Clear
5:35 AM 69.8 °F 53.6 °F 56% 29.90 in 10.0 mi South 8.1 mph - N/A   Clear
5:55 AM 69.8 °F 53.6 °F 56% 29.90 in 10.0 mi South 6.9 mph - N/A   Clear
6:15 AM 69.8 °F 53.6 °F 56% 29.89 in 10.0 mi SSW 6.9 mph - N/A   Clear
6:35 AM 69.8 °F 55.4 °F 60% 29.90 in 10.0 mi SSW 10.4 mph - N/A   Clear
6:55 AM 69.8 °F 55.4 °F 60% 29.91 in 10.0 mi SSW 13.8 mph - N/A   Scattered Clouds
7:15 AM 71.6 °F 55.4 °F 57% 29.90 in 10.0 mi SSW 13.8 mph 18.4 mph N/A   Partly Cloudy
7:35 AM 71.6 °F 57.2 °F 60% 29.90 in 10.0 mi SSW 15.0 mph 21.9 mph N/A   Clear
7:55 AM 71.6 °F 57.2 °F 60% 29.90 in 10.0 mi SSW 15.0 mph 19.6 mph N/A   Clear
8:15 AM 71.6 °F 57.2 °F 60% 29.92 in 10.0 mi SW 15.0 mph 18.4 mph N/A   Clear
8:35 AM 69.8 °F 59.0 °F 68% 29.93 in 9.0 mi SW 13.8 mph 24.2 mph N/A   Mostly Cloudy
8:55 AM 66.2 °F 59.0 °F 78% 29.90 in 10.0 mi South 8.1 mph 16.1 mph N/A   Scattered Clouds
9:15 AM 66.2 °F 60.8 °F 83% 29.90 in 10.0 mi SSW 10.4 mph - N/A   Partly Cloudy
9:35 AM 68.0 °F 60.8 °F 78% 29.90 in 10.0 mi South 12.7 mph 16.1 mph N/A   Scattered Clouds
9:55 AM 66.2 °F 60.8 °F 83% 29.90 in 10.0 mi SSW 11.5 mph 17.3 mph N/A   Mostly Cloudy
10:15 AM 66.2 °F 60.8 °F 83% 29.90 in 10.0 mi SSW 13.8 mph 19.6 mph N/A   Overcast
10:35 AM 68.0 °F 60.8 °F 78% 29.91 in 10.0 mi SW 18.4 mph 27.6 mph N/A   Overcast
10:55 AM 69.8 °F 60.8 °F 73% 29.91 in 10.0 mi SW 18.4 mph 27.6 mph N/A   Overcast
11:15 AM 69.8 °F 60.8 °F 73% 29.90 in 10.0 mi SW 20.7 mph 25.3 mph N/A   Overcast
11:35 AM 69.8 °F 62.6 °F 78% 29.90 in 10.0 mi SW 15.0 mph 24.2 mph N/A   Mostly Cloudy
11:55 AM 69.8 °F 62.6 °F 78% 29.91 in 10.0 mi SW 19.6 mph 23.0 mph N/A   Mostly Cloudy
12:15 PM - - N/A% 29.91 in - SW 15.0 mph - N/A   Unknown
12:35 PM 71.6 °F 62.6 °F 73% 29.92 in 10.0 mi SW 16.1 mph 20.7 mph N/A   Mostly Cloudy
12:55 PM 71.6 °F 62.6 °F 73% 29.91 in 10.0 mi WSW 20.7 mph 25.3 mph N/A   Mostly Cloudy
1:15 PM 71.6 °F 60.8 °F 69% 29.92 in 10.0 mi WSW 16.1 mph 26.5 mph N/A   Overcast
1:35 PM 73.4 °F 62.6 °F 69% 29.91 in 10.0 mi WSW 17.3 mph 21.9 mph N/A   Mostly Cloudy
1:55 PM 73.4 °F 60.8 °F 65% 29.90 in 10.0 mi West 20.7 mph 25.3 mph N/A   Scattered Clouds
2:15 PM 73.4 °F 60.8 °F 65% 29.90 in 10.0 mi West 18.4 mph 21.9 mph N/A   Partly Cloudy
2:35 PM 75.2 °F 60.8 °F 61% 29.90 in 10.0 mi WSW 17.3 mph 24.2 mph N/A   Partly Cloudy
2:55 PM 75.2 °F 60.8 °F 61% 29.90 in 10.0 mi West 16.1 mph 23.0 mph N/A   Partly Cloudy
3:15 PM 75.2 °F 60.8 °F 61% 29.90 in 10.0 mi WSW 15.0 mph - N/A   Partly Cloudy
3:35 PM 75.2 °F 60.8 °F 61% 29.88 in 10.0 mi WSW 13.8 mph 19.6 mph N/A   Mostly Cloudy
3:55 PM 78.8 °F 62.6 °F 57% 29.89 in 10.0 mi West 16.1 mph 23.0 mph N/A   Scattered Clouds
4:15 PM 77.0 °F 62.6 °F 61% 29.89 in 10.0 mi WSW 17.3 mph - N/A   Scattered Clouds
4:35 PM 75.2 °F 60.8 °F 61% 29.90 in 10.0 mi WSW 15.0 mph - N/A   Mostly Cloudy
4:55 PM 75.2 °F 60.8 °F 61% 29.89 in 10.0 mi SW 12.7 mph - N/A   Mostly Cloudy
5:15 PM 75.2 °F 60.8 °F 61% 29.89 in 10.0 mi West 11.5 mph - N/A   Scattered Clouds
5:35 PM 75.2 °F 60.8 °F 61% 29.89 in 10.0 mi West 13.8 mph - N/A   Mostly Cloudy
5:55 PM 73.4 °F 60.8 °F 65% 29.89 in 10.0 mi WNW 13.8 mph - N/A   Mostly Cloudy
6:15 PM 71.6 °F 60.8 °F 69% 29.91 in 9.0 mi NW 12.7 mph - N/A Thunderstorm Thunderstorm
6:35 PM 64.4 °F 55.4 °F 73% 29.93 in 10.0 mi North 4.6 mph 24.2 mph 0.01 in Thunderstorm Thunderstorm
6:55 PM 64.4 °F 55.4 °F 73% 29.90 in 10.0 mi South 5.8 mph - 0.01 in Thunderstorm Partly Cloudy
7:15 PM 62.6 °F 57.2 °F 82% 29.90 in 10.0 mi South 8.1 mph - N/A   Partly Cloudy
7:35 PM 62.6 °F 57.2 °F 82% 29.88 in 10.0 mi SE 8.1 mph - N/A   Clear
7:55 PM 62.6 °F 57.2 °F 82% 29.90 in 10.0 mi South 9.2 mph - N/A   Clear
8:15 PM 64.4 °F 59.0 °F 83% 29.91 in 10.0 mi South 5.8 mph - N/A   Clear
8:35 PM 64.4 °F 57.2 °F 77% 29.90 in 10.0 mi South 6.9 mph - N/A   Clear
8:55 PM 62.6 °F 57.2 °F 82% 29.90 in 10.0 mi South 5.8 mph - N/A   Clear
9:15 PM 62.6 °F 57.2 °F 82% 29.90 in 10.0 mi SSW 6.9 mph - N/A   Clear
9:35 PM 62.6 °F 57.2 °F 82% 29.91 in 10.0 mi South 3.5 mph - N/A   Clear
9:55 PM 62.6 °F 57.2 °F 82% 29.91 in 10.0 mi South 5.8 mph - N/A   Clear
10:15 PM 62.6 °F 57.2 °F 82% 29.93 in 10.0 mi SW 5.8 mph - N/A   Clear
10:35 PM 62.6 °F 55.4 °F 77% 29.93 in 10.0 mi SSW 4.6 mph - N/A   Clear
10:55 PM 62.6 °F 57.2 °F 82% 29.94 in 10.0 mi SW 9.2 mph - N/A   Partly Cloudy
11:15 PM 62.6 °F 57.2 °F 82% 29.95 in 10.0 mi SW 15.0 mph - N/A Thunderstorm Partly Cloudy
11:35 PM 62.6 °F 57.2 °F 82% 29.95 in 8.0 mi SW 17.3 mph 21.9 mph 0.12 in Thunderstorm Thunderstorm
11:55 PM 62.6 °F 57.2 °F 82% 29.96 in 7.0 mi SW 9.2 mph - 0.23 in   Mostly Cloudy